• En España
  • Lista de países
  • Para 7 días
  • Temperatura del agua
  • Mapa Satelital
  • El tiempo en el mapa
  • Informadores
  • user-avatar
    Iniciar sesión

    Tiempo cada hora Trinidad

    Hoy, 15 Noviembre, Jueves

    Tiempo Temperatura Precipitaciones Viento Presión Humedad
    00:00 +26°C° 5.6 mm 2 mps 743 mmHg 95%
    01:00 +25°C° 5.6 mm 2 mps 743 mmHg 96%
    02:00 +25°C° 0 mm 2 mps 743 mmHg 97%
    03:00 +24°C° 3.8 mm 2 mps 743 mmHg 97%
    04:00 +24°C° 3.8 mm 2 mps 743 mmHg 98%
    05:00 +23°C° 3.8 mm 2 mps 743 mmHg 98%
    06:00 +23°C° 2.8 mm 2 mps 744 mmHg 98%
    07:00 +23°C° 2.8 mm 2 mps 745 mmHg 98%
    08:00 +25°C° 0 mm 1 mps 745 mmHg 99%
    09:00 +25°C° 2.2 mm 1 mps 745 mmHg 99%
    10:00 +25°C° 2.2 mm 1 mps 745 mmHg 98%
    11:00 +25°C° 2.2 mm 1 mps 745 mmHg 97%
    12:00 +26°C° 0.6 mm 1 mps 744 mmHg 96%
    13:00 +26°C° 0.6 mm 1 mps 744 mmHg 95%
    14:00 +27°C° 0.6 mm 1 mps 743 mmHg 93%
    15:00 +27°C° 0.1 mm 1 mps 742 mmHg 92%
    16:00 +25°C° 0.1 mm 0 mps 742 mmHg 92%
    17:00 +25°C° 0.1 mm 0 mps 741 mmHg 91%
    18:00 +24°C° 0 mm 0 mps 742 mmHg 93%
    19:00 +24°C° 0 mm 0 mps 742 mmHg 95%
    20:00 +23°C° 0 mm 0 mps 742 mmHg 97%
    21:00 +23°C° 0 mm 0 mps 742 mmHg 98%
    22:00 +23°C° 0 mm 0 mps 743 mmHg 98%
    23:00 +23°C° 0 mm 0 mps 744 mmHg 98%

    Mañana, 16 Noviembre, Viernes

    Tiempo Temperatura Precipitaciones Viento Presión Humedad
    00:00 +23°C° 0 mm 0 mps 743 mmHg 98%
    01:00 +25°C° 0 mm 1 mps 743 mmHg 98%
    02:00 +25°C° 0 mm 1 mps 742 mmHg 99%
    03:00 +25°C° 0 mm 1 mps 742 mmHg 98%
    04:00 +25°C° 0 mm 1 mps 742 mmHg 98%
    05:00 +25°C° 0 mm 1 mps 742 mmHg 98%
    06:00 +26°C° 0 mm 1 mps 743 mmHg 95%
    07:00 +26°C° 0 mm 1 mps 743 mmHg 92%
    08:00 +27°C° 0 mm 1 mps 744 mmHg 90%
    09:00 +28°C° 0.1 mm 1 mps 744 mmHg 83%
    10:00 +30°C° 0.1 mm 1 mps 744 mmHg 77%
    11:00 +31°C° 0.1 mm 2 mps 744 mmHg 71%
    12:00 +32°C° 0.1 mm 2 mps 744 mmHg 68%
    13:00 +32°C° 0.1 mm 2 mps 743 mmHg 64%
    14:00 +34°C° 0.1 mm 2 mps 742 mmHg 61%
    15:00 +34°C° 0 mm 2 mps 742 mmHg 63%
    16:00 +32°C° 0 mm 2 mps 741 mmHg 65%
    17:00 +32°C° 0 mm 1 mps 741 mmHg 68%
    18:00 +30°C° 0 mm 1 mps 741 mmHg 73%
    19:00 +29°C° 0 mm 1 mps 741 mmHg 77%
    20:00 +28°C° 0 mm 1 mps 741 mmHg 82%
    21:00 +27°C° 0 mm 1 mps 742 mmHg 84%
    22:00 +27°C° 0 mm 1 mps 742 mmHg 87%
    23:00 +26°C° 0 mm 1 mps 742 mmHg 89%

    Pasado mañana, 17 Noviembre, Sábado

    Tiempo Temperatura Precipitaciones Viento Presión Humedad
    00:00 +26°C° 0 mm 1 mps 742 mmHg 90%
    01:00 +26°C° 0 mm 1 mps 742 mmHg 90%
    02:00 +25°C° 0 mm 1 mps 741 mmHg 91%
    03:00 +25°C° 0 mm 1 mps 741 mmHg 91%
    04:00 +25°C° 0 mm 1 mps 741 mmHg 92%
    05:00 +23°C° 0 mm 0 mps 741 mmHg 92%
    06:00 +27°C° 0 mm 1 mps 742 mmHg 85%
    07:00 +28°C° 0 mm 1 mps 742 mmHg 78%
    08:00 +30°C° 0 mm 1 mps 743 mmHg 71%
    09:00 +32°C° 0 mm 1 mps 743 mmHg 64%
    10:00 +35°C° 0 mm 2 mps 743 mmHg 57%
    11:00 +36°C° 0 mm 2 mps 743 mmHg 50%
    12:00 +37°C° 0 mm 2 mps 742 mmHg 48%
    13:00 +38°C° 0 mm 3 mps 741 mmHg 46%
    14:00 +39°C° 0 mm 3 mps 740 mmHg 44%
    15:00 +38°C° 0 mm 3 mps 739 mmHg 47%
    16:00 +37°C° 0 mm 3 mps 739 mmHg 49%
    17:00 +37°C° 0 mm 2 mps 738 mmHg 52%
    18:00 +35°C° 0 mm 2 mps 739 mmHg 58%
    19:00 +32°C° 0 mm 2 mps 739 mmHg 64%
    20:00 +30°C° 0 mm 2 mps 740 mmHg 70%
    21:00 +30°C° 0 mm 1 mps 740 mmHg 72%
    22:00 +29°C° 0 mm 1 mps 741 mmHg 74%
    23:00 +29°C° 0 mm 1 mps 741 mmHg 76%

    18 Noviembre, Domingo

    Tiempo Temperatura Precipitaciones Viento Presión Humedad
    00:00 +28°C° 0 mm 1 mps 740 mmHg 77%
    01:00 +28°C° 0 mm 1 mps 740 mmHg 77%
    02:00 +28°C° 0 mm 1 mps 740 mmHg 78%
    03:00 +27°C° 0.1 mm 1 mps 740 mmHg 79%
    04:00 +27°C° 0.1 mm 1 mps 740 mmHg 80%
    05:00 +27°C° 0.1 mm 1 mps 740 mmHg 81%
    06:00 +28°C° 0 mm 2 mps 740 mmHg 77%
    07:00 +30°C° 0 mm 2 mps 741 mmHg 72%
    08:00 +31°C° 0 mm 2 mps 742 mmHg 68%
    09:00 +34°C° 0 mm 3 mps 742 mmHg 61%
    10:00 +36°C° 0 mm 3 mps 742 mmHg 55%
    11:00 +38°C° 0 mm 3 mps 742 mmHg 48%
    12:00 +38°C° 0.6 mm 3 mps 741 mmHg 49%
    13:00 +38°C° 0.6 mm 3 mps 740 mmHg 50%
    14:00 +38°C° 0.6 mm 3 mps 740 mmHg 50%
    15:00 +37°C° 0.1 mm 3 mps 739 mmHg 53%
    16:00 +36°C° 0.1 mm 2 mps 739 mmHg 56%
    17:00 +36°C° 0.1 mm 2 mps 739 mmHg 59%
    18:00 +34°C° 0 mm 2 mps 740 mmHg 64%
    19:00 +31°C° 0 mm 1 mps 740 mmHg 70%
    20:00 +30°C° 0 mm 1 mps 741 mmHg 75%
    21:00 +28°C° 1.8 mm 2 mps 742 mmHg 81%
    22:00 +26°C° 1.8 mm 3 mps 743 mmHg 86%
    23:00 +22°C° 1.8 mm 4 mps 744 mmHg 92%

    19 Noviembre, Lunes

    Tiempo Temperatura Precipitaciones Viento Presión Humedad
    00:00 +22°C° 0.6 mm 3 mps 744 mmHg 92%
    01:00 +22°C° 0.6 mm 3 mps 743 mmHg 92%
    02:00 +21°C° 0.6 mm 3 mps 743 mmHg 92%
    03:00 +21°C° 0 mm 3 mps 743 mmHg 90%
    04:00 +21°C° 0 mm 2 mps 743 mmHg 87%
    05:00 +21°C° 0 mm 2 mps 744 mmHg 85%
    06:00 +23°C° 0.1 mm 2 mps 744 mmHg 82%
    07:00 +24°C° 0.1 mm 2 mps 745 mmHg 79%
    08:00 +24°C° 0.1 mm 2 mps 745 mmHg 76%
    09:00 +25°C° 0.1 mm 3 mps 745 mmHg 73%
    10:00 +26°C° 0.1 mm 3 mps 745 mmHg 70%
    11:00 +27°C° 0.1 mm 3 mps 745 mmHg 67%
    12:00 +28°C° 0 mm 3 mps 745 mmHg 65%
    13:00 +29°C° 0 mm 2 mps 744 mmHg 63%
    14:00 +30°C° 0 mm 2 mps 743 mmHg 61%
    15:00 +29°C° 0 mm 2 mps 743 mmHg 62%
    16:00 +29°C° 0 mm 2 mps 742 mmHg 64%
    17:00 +29°C° 0 mm 1 mps 741 mmHg 65%
    18:00 +28°C° 0 mm 1 mps 742 mmHg 70%
    19:00 +27°C° 0 mm 1 mps 742 mmHg 74%
    20:00 +23°C° 0 mm 0 mps 742 mmHg 79%
    21:00 +23°C° 0 mm 0 mps 743 mmHg 79%
    22:00 +23°C° 0 mm 0 mps 743 mmHg 80%
    23:00 +23°C° 0 mm 0 mps 744 mmHg 80%

    20 Noviembre, Martes

    Tiempo Temperatura Precipitaciones Viento Presión Humedad
    00:00 +23°C° 0 mm 0 mps 743 mmHg 81%
    01:00 +22°C° 0 mm 0 mps 743 mmHg 82%
    02:00 +22°C° 0 mm 0 mps 743 mmHg 83%
    03:00 +22°C° 0 mm 0 mps 743 mmHg 84%
    04:00 +22°C° 0 mm 0 mps 742 mmHg 84%
    05:00 +22°C° 0 mm 0 mps 742 mmHg 84%
    06:00 +23°C° 0 mm 0 mps 743 mmHg 81%
    07:00 +25°C° 0 mm 1 mps 744 mmHg 78%
    08:00 +26°C° 0 mm 1 mps 744 mmHg 75%
    09:00 +28°C° 0 mm 1 mps 744 mmHg 69%
    10:00 +30°C° 0 mm 1 mps 744 mmHg 63%
    11:00 +31°C° 0 mm 1 mps 744 mmHg 57%
    12:00 +32°C° 0 mm 1 mps 744 mmHg 55%
    13:00 +33°C° 0 mm 1 mps 743 mmHg 53%
    14:00 +33°C° 0 mm 1 mps 742 mmHg 52%
    15:00 +33°C° 0 mm 1 mps 741 mmHg 54%
    16:00 +33°C° 0 mm 1 mps 741 mmHg 56%
    17:00 +32°C° 0 mm 1 mps 740 mmHg 58%
    18:00 +31°C° 0 mm 1 mps 741 mmHg 63%
    19:00 +27°C° 0 mm 0 mps 742 mmHg 68%
    20:00 +26°C° 0 mm 0 mps 742 mmHg 73%
    21:00 +26°C° 0 mm 0 mps 743 mmHg 74%
    22:00 +27°C° 0 mm 1 mps 743 mmHg 75%
    23:00 +27°C° 0 mm 1 mps 744 mmHg 76%
    Mostrar más